FLTSATCOM 8 (USA 46)

Last updated on Mon Oct 14 2024 00:02:37 GMT+0000 (Coordinated Universal Time)

1 20253U 89077A 24287.53700410 -.00000364 00000+0 00000+0 0 9998 2 20253 12.5989 354.8261 0005151 219.4033 127.5090 1.00274027254425
UTC large
Height (km)
Speed (km/s)
/
Latitude / Longitude
Inclination (degrees)
Orbital Period (minutes)
Azimuth
Elevation
Range (km)
Doppler Factor

Next 0 passes for location: London (51.5072 / 0.1276)

Sorry there are no passes over London.